Reflectivity
16 15 16 14 -17 -20 4 10 10 -20 1 10 -20 -20 -20 -20 -20 -20 -20 -20 -20 -20 -20 -20 -20 -20 -20 -20 -20 9 25 14 4 21 -20 -20 -20 -20 -20 -20 -20 -20 -20 -20 -4
-6 15 14 8 12 12 -20 -20 -1 9 -2 -15 -3 -20 -20 4 -20 -20 -20 -20 -20 -20 -20 -20 -20 -20 -20 -20 -20 -2 25 14 17 24 -20 -20 -20 -20 -20 -20 -20 -20 -20 -20 -20
10 14 13 15 15 15 13 0 -20 -20 -2 12 7 -20 -20 -10 -20 -20 -20 -20 -20 -20 -20 -20 -20 -20 -20 -20 -20 28 -16 -20 17 12 -20 -20 -20 -20 -20 -20 -20 -20 -20 -20 -20
13 16 14 11 10 14 15 13 12 -20 -20 -20 6 -20 -20 -20 -20 -20 -20 -20 -20 -20 -20 -20 -20 -20 -20 -20 -20 -2 -17 -11 21 15 -20 -20 -20 -20 -20 -20 -20 -20 -20 -20 -20
15 16 14 15 13 9 7 12 9 -9 -18 -20 -20 -20 -20 -20 -20 -20 -20 -20 -20 -20 -20 -20 -20 -20 28 -20 -20 -20 -13 6 24 2 -20 -20 -20 -20 -20 -20 -20 -20 -20 -20 -20
14 9 14 13 7 13 14 14 12 -8 -20 -20 -20 -20 -20 -20 -20 -20 -20 -20 -20 -20 -20 -20 -20 -20 -4 -20 -5 -20 30 7 22 -6 2 -9 -20 -20 -20 -20 -20 -20 -20 -20 -20
2 10 14 13 11 -13 3 -6 -17 -14 -5 10 -20 -20 -20 -20 -20 -20 -20 -20 -20 -20 -20 -20 -20 -20 -20 7 -8 -1 28 26 17 17 29 25 -20 19 -20 -20 -20 -20 -20 -20 -20
-19 7 5 11 5 6 -9 -5 -4 8 -1 -7 -20 -20 -20 -20 -20 -20 -20 -20 -20 -20 -20 -20 -20 -13 -20 -20 -6 -14 -17 22 28 26 17 32 26 17 -20 -20 -20 -20 -20 -20 -20
9 11 13 13 13 6 -10 -13 -9 -2 -18 -20 -20 -20 -20 -20 -20 -20 -20 -20 -20 -20 -20 -20 -20 -20 -20 -20 -20 -20 26 1 21 33 36 34 39 34 24 -20 -15 -20 -20 -20 -20
-7 -15 10 12 10 5 -20 -20 -20 -20 -20 -20 -20 -20 -20 -20 -20 -20 -20 -20 -20 -20 -20 -20 -20 -20 8 -20 -20 7 19 -4 29 30 30 40 40 41 31 9 -15 12 -20 -20 -20
-19 -6 6 -3 -13 7 -20 -20 -20 -20 -20 -20 -20 -20 -20 -20 -20 -20 -20 -20 -20 -20 -20 -20 -20 -20 -20 -20 -20 -20 21 12 -12 23 34 16 29 32 -8 22 23 -18 -20 -20 -20
-20 -20 -11 -6 6 11 -20 -20 -20 -20 -20 -20 -20 -20 -20 -20 -20 -20 -20 -20 -20 -20 -20 -20 -20 -20 -20 -20 -5 -20 -20 2 4 14 25 31 23 -20 -20 1 28 22 -20 -20 -20
-20 -20 -4 9 -11 -11 -20 -20 -20 -20 -20 -20 -20 -20 -20 -20 -20 -20 -20 -20 -20 -20 -20 -20 -20 -20 -20 -20 -20 -20 -18 -11 -4 11 18 23 30 32 -20 14 -8 -20 -20 -20 -6
-20 -20 7 -10 -20 -20 -20 -20 -20 -20 -20 -20 -20 -20 -20 -20 -20 -20 -20 -20 -20 -20 -20 -20 -20 -20 -20 -20 -20 -20 -20 -20 -20 -20 -20 -20 10 17 16 -2 -15 -0 21 -20 -20
-20 -14 10 13 -20 -20 -20 -20 -20 -20 -20 -20 -20 -20 -20 -20 -20 -20 -20 -20 -20 -20 -20 -20 -20 -20 -20 -20 -20 -20 -20 -20 -20 -20 -20 -20 -20 -19 5 -20 -1 22 -17 -20 -20
-20 10 12 -20 -20 -20 -20 -20 -20 -20 -20 -20 -19 -20 -20 -20 -20 -20 -20 -20 -20 -20 -20 -20 -20 -20 -20 -20 -20 -18 -20 -17 -18 -20 -20 -20 -20 -17 -20 -20 -20 31 28 -13 -20
-12 13 1 -20 -20 -20 -20 -20 -20 -20 -20 -20 -20 -20 -20 -20 -20 -20 -20 -20 -20 -20 -20 -20 -20 -20 -20 -20 -20 -20 -20 -20 -20 -14 -20 -20 -20 -20 -20 -20 -20 6 26 18 -20
8 -14 -20 -20 -20 -20 -20 -20 -20 -20 -20 -20 -20 -20 -20 -20 -20 -20 -20 -20 -20 -20 -20 -20 -20 -20 -20 -20 -20 -20 -20 -20 1 -20 -19 -20 -20 -20 -20 -16 -20 -19 6 21 -5
-20 -20 -20 -20 -20 -20 -20 -20 -20 -20 -20 -20 -20 -20 -20 -20 -20 -20 -20 -20 -20 -20 -20 -20 -20 -20 -20 -20 -20 -20 -20 -20 -20 -20 -20 -20 -20 -20 -20 -20 -20 -20 -5 -17 24
-20 -20 -20 -20 -20 -20 -20 -20 -20 -20 -20 -20 -20 -20 -20 -20 -20 -20 -20 -20 -20 -20 -20 -20 -20 -20 -20 -20 -20 -20 -20 -20 -20 -20 -20 -20 -20 -20 -20 -20 -20 -20 -19 -2 -7
-20 -20 -20 -20 -20 -20 -20 -20 -20 -20 -20 -20 -20 -20 -20 -20 -20 -20 -20 -20 -20 -20 -20 -20 -20 -20 -20 -20 -20 -20 -20 -20 -20 -20 -20 -20 -20 -20 -20 -20 -20 -20 -20 -12 0
-20 -20 -20 -20 -20 -20 -20 -20 -20 -20 -20 -20 -20 -20 -20 -20 -20 -20 -20 -20 -20 -20 -20 -20 -20 -20 -20 -20 -20 -20 -20 -20 -20 -20 -20 -20 -20 -20 -20 -20 -4 -20 -20 -20 -20
-20 -20 -20 -20 -20 -20 -20 -20 -20 -20 -20 -20 -20 -20 -20 -20 -20 -20 -20 -20 -20 -20 -20 -20 -20 -20 -20 -20 -20 -20 -20 -20 -20 -20 -20 -20 -20 -20 -20 -8 -9 -16 -18 -7 -3
-20 -20 -20 -20 -20 -20 -20 -20 -20 -20 -20 -20 -20 -20 -20 -20 -20 -20 -20 -20 -20 -20 -20 -20 -20 -20 -20 -20 -20 -20 -20 -20 -20 -20 -20 -20 -20 -20 -13 -14 -19 -8 -6 -13 -11
-20 -20 -20 -20 -20 -20 -20 -20 -20 -20 -20 -20 -20 -20 -20 -20 -20 -20 -20 -20 -20 -20 -20 -20 -20 -20 -20 -20 -20 -20 -20 -20 -20 -20 -20 -20 -20 -20 -20 -20 4 -19 -13 4 3
-20 -20 -20 -20 -20 -20 -20 -20 -20 -20 -20 -20 -20 -20 -20 -20 -20 -20 -20 -20 -20 -20 -20 -20 -20 -20 -20 -20 -20 -20 -20 -20 -20 -20 -20 -20 -20 -20 -20 -11 1 -20 5 2 -20
-20 -20 -20 -20 -20 -20 -20 -20 -20 -20 -20 -20 -20 -20 -20 -20 -20 -20 -20 -20 -20 -20 -20 -20 -20 -20 -20 -20 -20 -20 -20 -20 -20 -20 -20 -20 -20 -20 -2 -14 1 -15 3 -1 5
Wind_Speed
10 10 10 9 9 8 9 10 10 10 11 11 11 11 11 11 10 2 7 7 7 10 10 12 6 10 6 5 4 3 2 3 6 8 4 9 7 6 7 13 8 3 15 17 17
10 10 10 10 10 10 9 8 8 10 10 11 12 12 11 10 4 9 9 7 10 14 14 16 11 11 5 4 4 4 1 2 4 5 10 9 10 9 9 11 11 17 18 18 18
11 11 11 11 11 10 10 10 9 7 9 11 11 12 10 9 5 4 2 13 12 15 10 9 12 5 3 3 3 1 1 6 10 3 4 13 12 7 15 8 12 23 22 19 18
12 12 11 11 11 11 11 10 10 10 8 8 11 11 11 2 2 3 5 12 13 11 14 11 9 5 3 3 1 3 2 6 1 4 4 12 11 13 4 3 15 21 22 20 18
13 13 12 12 12 11 11 11 11 10 9 9 7 9 3 3 6 6 3 14 14 10 13 10 13 5 4 3 1 5 5 12 9 4 2 9 9 12 6 15 18 19 19 18 15
13 12 12 11 11 11 10 10 10 10 10 8 6 6 3 4 2 5 13 14 13 8 8 12 8 4 4 3 3 3 7 10 5 8 3 6 7 9 6 19 18 18 17 16 15
13 12 12 12 10 9 10 9 9 8 8 7 7 3 2 5 4 8 9 7 8 4 7 2 7 5 3 4 4 6 11 12 4 11 7 6 3 5 12 18 19 17 15 14 13
12 12 11 11 10 10 9 10 9 7 4 4 5 2 5 1 3 10 8 7 6 4 1 4 4 3 3 3 4 7 5 7 8 10 11 7 8 7 7 17 18 17 14 14 13
13 13 12 12 11 11 11 12 9 4 3 4 1 3 1 0 3 7 4 9 8 1 1 3 3 2 3 3 4 1 3 5 8 9 5 5 1 7 10 14 16 16 14 13 13
12 12 12 11 10 10 13 8 6 7 3 5 3 4 3 2 5 7 3 12 4 7 5 4 3 4 2 5 4 4 2 3 10 7 13 12 14 17 13 10 15 15 14 14 14
12 12 12 10 9 8 5 3 3 3 3 5 3 3 4 4 6 3 5 7 5 7 6 4 7 10 9 4 3 3 8 8 12 10 7 4 6 20 18 11 13 15 15 14 16
11 11 12 9 8 7 2 3 3 3 6 5 7 7 6 3 3 7 9 4 7 11 8 6 13 7 4 3 4 6 8 7 9 8 4 6 6 9 18 18 13 13 14 15 13
12 10 13 12 7 2 3 3 3 1 1 2 3 4 1 8 5 11 14 7 9 9 10 12 5 8 5 6 6 3 1 5 7 7 7 11 2 4 16 11 14 8 8 15 16
14 12 13 12 3 1 3 1 2 3 2 7 2 2 4 3 4 6 12 7 4 11 7 6 4 13 5 5 5 3 3 8 15 8 3 6 4 13 15 17 14 15 16 12 17
15 13 12 7 2 3 3 5 3 4 2 9 3 2 1 2 6 5 3 3 9 8 6 5 10 11 7 5 3 2 4 10 8 4 2 7 5 4 18 16 21 19 23 21 13
15 16 10 2 2 4 4 3 3 2 4 4 4 5 3 5 3 6 9 3 3 6 1 3 1 6 7 3 7 7 9 9 5 3 4 2 7 8 13 24 19 19 19 22 19
17 15 4 2 1 5 5 3 0 3 3 6 4 5 4 5 3 2 11 8 4 6 7 3 3 2 2 8 2 6 8 4 2 5 4 2 6 5 8 10 18 23 24 19 21
23 5 4 3 4 8 2 1 4 2 3 3 4 3 5 7 4 3 10 8 3 2 5 7 8 7 6 7 6 11 12 5 6 5 3 2 6 1 3 6 8 17 21 18 19
12 1 1 3 4 4 2 4 2 1 2 5 1 4 4 3 3 1 2 7 5 6 3 5 5 1 6 5 9 6 9 1 3 0 5 2 3 5 3 3 11 18 17 18 18
2 1 5 6 4 1 3 3 0 2 3 1 4 3 5 7 2 2 1 2 2 2 4 6 2 0 3 4 3 6 10 10 4 7 8 4 4 3 5 6 11 17 20 18 18
1 2 5 1 4 4 3 2 2 2 3 3 2 2 2 3 4 3 2 1 0 1 0 6 3 5 3 6 9 6 7 2 6 5 10 7 4 1 6 9 12 13 15 16 17
1 3 3 3 2 2 2 0 2 2 1 1 2 2 3 2 3 3 2 3 2 1 4 1 4 6 6 3 4 2 5 12 8 10 5 8 4 1 3 7 8 9 9 12 14
3 2 1 3 2 3 0 1 2 2 3 1 1 2 1 2 1 2 2 1 3 1 1 2 1 5 6 5 3 2 3 1 2 2 12 13 6 3 5 7 8 11 11 11 11
1 2 2 3 2 1 1 2 2 2 3 2 2 2 2 0 1 1 3 2 4 1 7 2 2 4 6 1 2 4 2 0 5 10 11 8 5 9 11 11 9 9 9 10 10
3 3 2 2 3 4 1 2 2 4 4 8 3 6 2 1 1 1 1 3 2 2 2 1 2 1 3 5 2 1 1 2 7 8 10 11 8 11 15 14 12 10 8 9 8
1 2 2 3 1 1 2 3 4 3 5 5 4 7 1 0 4 4 3 1 2 1 2 2 2 2 3 4 2 4 3 5 1 7 10 7 8 5 14 11 12 12 10 9 7
1 1 1 2 2 0 1 2 3 1 2 1 3 3 1 2 3 5 5 3 2 1 2 0 4 3 5 4 2 6 4 4 3 4 5 7 4 16 17 16 14 11 10 9 8
Wind_Direction
335 333 330 330 328 325 328 331 329 327 328 328 328 325 324 325 317 188 239 220 176 162 145 141 138 146 166 185 177 160 217 169 130 135 161 149 126 63 107 130 67 89 137 133 144
334 331 329 325 324 319 318 319 323 324 323 326 325 324 326 329 290 250 244 203 206 156 145 156 156 156 168 198 215 225 242 137 105 150 157 156 134 127 134 121 96 104 112 134 149
334 331 327 323 320 318 315 315 315 316 319 322 321 322 321 321 274 240 228 199 183 174 149 152 147 162 162 191 207 247 262 148 153 161 145 142 130 126 139 152 161 144 140 149 158
333 330 326 321 318 317 314 310 310 311 314 316 320 318 316 254 164 65 116 173 160 161 149 144 161 130 121 210 289 277 158 133 107 193 113 147 126 132 110 118 152 144 146 153 164
334 333 332 328 324 320 315 311 309 308 307 309 315 318 299 236 260 340 174 157 150 153 158 160 162 142 161 208 309 237 172 144 199 180 53 145 138 136 100 125 138 141 149 159 163
338 334 332 331 326 321 316 312 311 310 308 305 302 305 253 244 23 10 138 141 155 138 148 160 169 141 159 185 204 295 170 124 166 193 73 98 111 144 126 139 145 155 158 164 165
337 338 334 332 329 325 319 311 306 302 305 303 287 262 223 251 3 113 132 135 154 138 149 141 169 174 161 191 187 198 124 132 168 151 141 92 61 86 142 161 155 165 165 167 169
338 337 333 330 326 323 317 304 294 286 274 269 257 256 248 223 358 138 130 97 115 81 208 159 109 210 245 287 178 186 169 154 163 141 140 145 182 212 156 167 166 170 173 174 179
340 340 337 333 331 329 323 309 286 232 170 176 193 292 256 116 201 160 148 140 152 21 25 152 228 231 227 224 149 240 214 166 136 164 124 104 90 208 189 190 176 174 178 181 182
343 340 338 336 333 335 324 308 131 144 172 176 241 254 235 63 135 133 106 142 130 139 130 144 178 208 201 216 191 166 147 143 127 167 111 152 223 181 190 203 196 176 181 187 192
344 344 341 337 333 342 338 149 194 161 202 253 296 292 306 357 142 138 147 125 118 148 156 159 196 203 177 212 115 112 127 156 100 125 88 90 147 161 182 202 203 182 188 195 202
337 340 337 334 321 329 271 245 96 66 306 231 254 265 267 286 129 130 178 134 156 157 145 158 214 192 221 236 183 112 120 83 87 119 105 127 96 184 177 188 187 189 195 200 205
330 329 332 330 300 181 262 242 101 69 256 312 185 233 232 182 178 164 179 145 162 157 178 191 190 167 189 179 192 148 158 150 125 131 85 131 79 211 200 203 185 201 221 205 197
326 332 338 330 197 128 249 31 179 236 3 23 61 123 155 227 123 148 179 147 162 177 173 206 144 171 179 166 207 184 187 129 139 170 129 210 162 216 202 203 190 195 218 209 206
326 332 333 316 333 213 95 326 145 212 107 342 50 104 110 264 124 158 195 170 165 159 199 147 163 169 181 183 142 64 146 129 149 85 200 197 248 133 186 201 207 198 204 211 209
328 331 330 184 223 258 316 304 214 256 68 13 16 349 167 14 70 127 179 109 99 139 176 127 169 188 198 149 169 159 91 98 94 29 252 229 240 168 182 213 205 204 195 204 208
329 321 261 264 65 325 293 187 314 45 324 5 348 0 68 19 73 117 171 181 183 165 172 188 169 149 172 147 162 208 182 128 61 214 263 292 201 272 197 200 208 193 200 199 200
333 347 193 244 313 331 234 99 70 29 3 344 352 29 58 356 54 17 157 184 111 134 164 185 198 198 159 211 179 196 206 213 201 202 197 177 218 189 241 260 234 196 198 189 198
323 96 208 310 242 280 50 58 75 204 330 335 160 62 57 47 358 27 84 185 193 191 220 170 222 211 211 161 198 161 209 310 196 95 237 169 246 230 261 238 185 181 183 180 191
340 332 31 350 157 309 73 94 137 273 324 301 67 18 38 6 29 8 154 140 178 231 286 170 219 115 140 172 127 227 167 196 211 198 222 197 266 237 198 194 180 181 184 182 184
248 103 13 8 277 45 68 60 303 277 278 8 80 74 63 16 18 32 12 96 286 67 245 153 228 141 246 209 195 175 193 194 237 248 225 221 221 90 178 189 196 188 184 177 179
325 90 27 297 27 26 61 226 326 329 56 21 75 77 47 58 18 18 325 298 13 74 188 144 188 227 248 79 336 295 252 223 224 192 242 276 220 66 195 178 195 183 177 178 179
63 85 114 279 36 61 182 290 287 8 26 77 92 6 95 80 28 350 312 326 282 332 144 178 192 194 191 163 146 151 101 60 258 285 209 227 216 135 143 163 186 179 176 168 159
143 114 58 64 36 85 86 25 117 94 52 334 64 129 150 154 109 353 317 314 343 266 95 119 170 248 252 18 9 177 136 292 239 225 221 239 223 191 181 178 173 175 169 172 166
9 82 13 98 71 95 87 353 35 22 23 21 99 37 294 188 150 49 319 303 88 14 74 341 260 250 153 142 146 256 89 281 221 243 236 227 220 197 183 180 173 161 152 158 155
54 151 97 81 331 74 20 42 40 51 6 18 15 349 355 346 356 45 336 42 29 38 57 10 182 193 231 195 231 231 304 339 249 238 256 268 221 191 153 154 154 158 159 159 151
46 64 292 39 73 190 34 95 50 3 132 66 337 303 262 69 292 294 297 290 327 320 114 126 161 171 242 333 220 233 307 316 306 258 281 232 13 161 162 163 161 156 160 157 152